Location: *
(35.2348°S, 91.3916°E)
Time: 15:04:29
(UTC+00:00)

NOSS 2-3 (E) - Pass Details

Date: 23 October 2019
Orbit: 595 x 1616 km, 63.4° (Epoch: 12 November)

Event Time Altitude Azimuth Distance (km) Brightness Sun altitude
Rises 14:44:13 0° 213° (SSW) 3,908 8.8 -27.7°
Reaches altitude 10° 14:47:11 10° 214° (SSW) 2,780 7.8 -28.2°
Enters shadow 14:53:14 76° 259° (W) 859 4.2 -29.1°
